Hourly Weather Lukashino

Today, 7 May, Friday

Time Temperature Precipitation Wind Pressure Humidity
00:00 +3°C° 0 mm 3 mps 742 mmHg 84%
01:00 +3°C° 0 mm 3 mps 742 mmHg 86%
02:00 +2°C° 0 mm 3 mps 742 mmHg 89%
03:00 +2°C° 0 mm 3 mps 742 mmHg 90%
04:00 +3°C° 0 mm 2 mps 742 mmHg 92%
05:00 +2°C° 0 mm 2 mps 742 mmHg 94%
06:00 +3°C° 0 mm 3 mps 742 mmHg 90%
07:00 +4°C° 0 mm 3 mps 742 mmHg 86%
08:00 +7°C° 0 mm 3 mps 742 mmHg 82%
09:00 +7°C° 0.7 mm 3 mps 742 mmHg 84%
10:00 +5°C° 0.7 mm 3 mps 742 mmHg 87%
11:00 +6°C° 0.7 mm 2 mps 742 mmHg 90%
12:00 +6°C° 1.2 mm 2 mps 741 mmHg 91%
13:00 +6°C° 1.2 mm 2 mps 741 mmHg 93%
14:00 +7°C° 1.2 mm 1 mps 741 mmHg 94%
15:00 +6°C° 0.4 mm 2 mps 741 mmHg 95%
16:00 +6°C° 0.4 mm 2 mps 740 mmHg 95%
17:00 +6°C° 0.4 mm 2 mps 740 mmHg 96%
18:00 +5°C° 0.1 mm 2 mps 740 mmHg 96%
19:00 +5°C° 0.1 mm 2 mps 741 mmHg 96%
20:00 +6°C° 0.1 mm 1 mps 741 mmHg 96%
21:00 +5°C° 0 mm 1 mps 741 mmHg 96%
22:00 +5°C° 0 mm 1 mps 741 mmHg 95%
23:00 +4°C° 0 mm 1 mps 741 mmHg 95%

Tomorrow, 8 May, Saturday

Time Temperature Precipitation Wind Pressure Humidity
00:00 +3°C° 0 mm 2 mps 741 mmHg 96%
01:00 +2°C° 0 mm 2 mps 742 mmHg 96%
02:00 +2°C° 0 mm 2 mps 742 mmHg 97%
03:00 +2°C° 0 mm 2 mps 742 mmHg 96%
04:00 +2°C° 0 mm 2 mps 743 mmHg 96%
05:00 +2°C° 0 mm 2 mps 743 mmHg 95%
06:00 +2°C° 0 mm 3 mps 744 mmHg 91%
07:00 +1°C° 0 mm 4 mps 744 mmHg 87%
08:00 +3°C° 0 mm 4 mps 745 mmHg 83%
09:00 +3°C° 0 mm 5 mps 745 mmHg 76%
10:00 +5°C° 0 mm 5 mps 745 mmHg 69%
11:00 +5°C° 0 mm 6 mps 746 mmHg 62%
12:00 +7°C° 0 mm 6 mps 746 mmHg 56%
13:00 +8°C° 0 mm 6 mps 746 mmHg 51%
14:00 +9°C° 0 mm 6 mps 747 mmHg 46%
15:00 +9°C° 0.1 mm 6 mps 747 mmHg 51%
16:00 +8°C° 0.1 mm 6 mps 748 mmHg 56%
17:00 +8°C° 0.1 mm 5 mps 748 mmHg 61%
18:00 +6°C° 0.1 mm 4 mps 748 mmHg 69%
19:00 +5°C° 0.1 mm 3 mps 749 mmHg 76%
20:00 +5°C° 0.1 mm 2 mps 749 mmHg 84%
21:00 +4°C° 0 mm 2 mps 750 mmHg 87%
22:00 +4°C° 0 mm 2 mps 750 mmHg 90%
23:00 +3°C° 0 mm 2 mps 750 mmHg 93%

Day after tomorrow, 9 May, Sunday

Time Temperature Precipitation Wind Pressure Humidity
00:00 +3°C° 0 mm 2 mps 751 mmHg 94%
01:00 +2°C° 0 mm 2 mps 751 mmHg 94%
02:00 +2°C° 0 mm 2 mps 752 mmHg 95%
03:00 +2°C° 0 mm 2 mps 752 mmHg 95%
04:00 +1°C° 0 mm 2 mps 752 mmHg 96%
05:00 +1°C° 0 mm 2 mps 753 mmHg 96%
06:00 +3°C° 0 mm 2 mps 753 mmHg 90%
07:00 +5°C° 0 mm 2 mps 754 mmHg 84%
08:00 +7°C° 0 mm 2 mps 754 mmHg 78%
09:00 +8°C° 0 mm 2 mps 754 mmHg 68%
10:00 +9°C° 0 mm 3 mps 754 mmHg 59%
11:00 +11°C° 0 mm 3 mps 754 mmHg 50%
12:00 +12°C° 0 mm 3 mps 754 mmHg 47%
13:00 +12°C° 0 mm 3 mps 754 mmHg 45%
14:00 +13°C° 0 mm 3 mps 754 mmHg 43%
15:00 +13°C° 0 mm 3 mps 754 mmHg 45%
16:00 +13°C° 0 mm 3 mps 754 mmHg 48%
17:00 +13°C° 0 mm 3 mps 754 mmHg 50%
18:00 +12°C° 0 mm 3 mps 754 mmHg 57%
19:00 +10°C° 0 mm 3 mps 754 mmHg 65%
20:00 +8°C° 0 mm 3 mps 754 mmHg 72%
21:00 +8°C° 0 mm 3 mps 754 mmHg 74%
22:00 +7°C° 0 mm 3 mps 754 mmHg 75%
23:00 +7°C° 0 mm 3 mps 754 mmHg 76%

10 May, Monday

Time Temperature Precipitation Wind Pressure Humidity
00:00 +5°C° 0 mm 3 mps 755 mmHg 76%
01:00 +5°C° 0 mm 3 mps 755 mmHg 76%
02:00 +5°C° 0 mm 3 mps 755 mmHg 75%
03:00 +4°C° 0 mm 3 mps 755 mmHg 77%
04:00 +4°C° 0 mm 3 mps 755 mmHg 79%
05:00 +4°C° 0 mm 3 mps 755 mmHg 80%
06:00 +6°C° 0 mm 4 mps 755 mmHg 75%
07:00 +8°C° 0 mm 4 mps 756 mmHg 70%
08:00 +10°C° 0 mm 5 mps 756 mmHg 64%
09:00 +13°C° 0 mm 5 mps 756 mmHg 61%
10:00 +14°C° 0 mm 6 mps 756 mmHg 57%
11:00 +16°C° 0 mm 6 mps 756 mmHg 53%
12:00 +16°C° 0 mm 6 mps 756 mmHg 52%
13:00 +17°C° 0 mm 6 mps 755 mmHg 50%
14:00 +19°C° 0 mm 6 mps 755 mmHg 49%
15:00 +17°C° 0 mm 6 mps 755 mmHg 52%
16:00 +17°C° 0 mm 6 mps 755 mmHg 55%
17:00 +17°C° 0 mm 5 mps 755 mmHg 58%
18:00 +15°C° 0 mm 5 mps 755 mmHg 64%
19:00 +13°C° 0 mm 4 mps 755 mmHg 70%
20:00 +12°C° 0 mm 3 mps 755 mmHg 76%
21:00 +11°C° 0 mm 4 mps 755 mmHg 77%
22:00 +10°C° 0 mm 4 mps 755 mmHg 78%
23:00 +8°C° 0 mm 4 mps 755 mmHg 79%

11 May, Tuesday

Time Temperature Precipitation Wind Pressure Humidity
00:00 +8°C° 0 mm 4 mps 755 mmHg 79%
01:00 +8°C° 0 mm 4 mps 755 mmHg 79%
02:00 +8°C° 0 mm 4 mps 755 mmHg 78%
03:00 +7°C° 0 mm 4 mps 755 mmHg 80%
04:00 +7°C° 0 mm 4 mps 755 mmHg 81%
05:00 +6°C° 0 mm 4 mps 756 mmHg 82%
06:00 +8°C° 0 mm 4 mps 756 mmHg 76%
07:00 +10°C° 0 mm 5 mps 755 mmHg 70%
08:00 +11°C° 0 mm 6 mps 755 mmHg 64%
09:00 +14°C° 0 mm 6 mps 755 mmHg 59%
10:00 +15°C° 0 mm 6 mps 755 mmHg 54%
11:00 +17°C° 0 mm 6 mps 755 mmHg 49%
12:00 +17°C° 0 mm 6 mps 755 mmHg 48%
13:00 +19°C° 0 mm 6 mps 754 mmHg 46%
14:00 +19°C° 0 mm 6 mps 754 mmHg 45%
15:00 +19°C° 0 mm 6 mps 754 mmHg 48%
16:00 +19°C° 0 mm 6 mps 754 mmHg 51%
17:00 +19°C° 0 mm 5 mps 753 mmHg 54%
18:00 +16°C° 0 mm 5 mps 753 mmHg 60%
19:00 +14°C° 0 mm 4 mps 753 mmHg 66%
20:00 +12°C° 0 mm 3 mps 753 mmHg 73%
21:00 +12°C° 0 mm 4 mps 753 mmHg 74%
22:00 +11°C° 0 mm 4 mps 753 mmHg 76%
23:00 +11°C° 0 mm 4 mps 753 mmHg 78%

12 May, Wednesday

Time Temperature Precipitation Wind Pressure Humidity
00:00 +11°C° 0 mm 4 mps 753 mmHg 82%
01:00 +10°C° 0 mm 4 mps 753 mmHg 85%
02:00 +10°C° 0 mm 3 mps 752 mmHg 89%
03:00 +10°C° 0 mm 3 mps 752 mmHg 91%
04:00 +10°C° 0 mm 3 mps 752 mmHg 93%
05:00 +10°C° 0 mm 3 mps 752 mmHg 96%
06:00 +12°C° 0 mm 4 mps 752 mmHg 89%
07:00 +13°C° 0 mm 5 mps 752 mmHg 83%
08:00 +15°C° 0 mm 5 mps 752 mmHg 77%
09:00 +16°C° 0 mm 6 mps 752 mmHg 68%
10:00 +17°C° 0 mm 6 mps 752 mmHg 60%
11:00 +19°C° 0 mm 6 mps 752 mmHg 52%
12:00 +20°C° 0 mm 6 mps 751 mmHg 53%
13:00 +21°C° 0 mm 6 mps 751 mmHg 54%
14:00 +22°C° 0 mm 6 mps 750 mmHg 55%
15:00 +21°C° 0 mm 5 mps 750 mmHg 58%
16:00 +21°C° 0 mm 4 mps 750 mmHg 62%
17:00 +21°C° 0 mm 4 mps 749 mmHg 65%
18:00 +20°C° 0 mm 4 mps 749 mmHg 69%
19:00 +17°C° 0 mm 5 mps 749 mmHg 74%
20:00 +16°C° 0 mm 5 mps 748 mmHg 78%
21:00 +15°C° 0 mm 5 mps 748 mmHg 81%
22:00 +14°C° 0 mm 5 mps 748 mmHg 84%
23:00 +13°C° 0 mm 5 mps 748 mmHg 87%
Show more

We Need Your Consent

Meteoprog and our Service Providers may store and access personal data such as cookies, device identifiers or other similar technologies on your device and process such data to personalise content and ads, as well as provide social media features and to analyse the traffic.

  • Store and/or access information on your device

    Cookies, device identifiers or other information can be stored or accessed on your device for the purposes indicated above.

  • Personalised ads and content, ad and content measurement, audience insights, and products development

    Ads and content can be personalised based on a profile. More data can be added to better personalise ads and content. Ad and content performance can be measured. Insights about the audience who saw the ads and content can be derived. Such data can be used to develop or improve user’s experience, systems and software.

By clicking ‘I Agree’ you will allow the use of indicated cookies, device identifiers, web beacons or other similar technologies. Your settings can be changed in the browser on your device.

For certain purposes, legitimate interests may be relied on, rather than consent. You can read more about this in our Privacy and Cookie Policy.